Burlington, VT

10:57 AM EDT on August 21, 2017 (GMT -0400)
Burlington International

Weather History for KBTV - January, 2014

Change the Weather History Date:

Monday, January 20, 2014

  Actual Average Record
Temperature  
Mean Temperature 17 °F 18 °F  
Max Temperature 31 °F 27 °F 52 °F (1951)
Min Temperature 2 °F 10 °F -22 °F (1970)
Degree Days  
Heating Degree Days 48 47  
Month to date heating degree days 837 925  
Since 1 July heating degree days 3610 3684  
Cooling Degree Days 0 0  
Month to date cooling degree days 0 0  
Year to date cooling degree days 0 0  
Moisture  
Dew Point 7 °F    
Average Humidity 71    
Maximum Humidity 81    
Minimum Humidity 60    
Precipitation  
Precipitation 0.10 in 0.06 in 0.95 in (1973)
Month to date precipitation 2.45 1.32  
Year to date precipitation 2.45 1.32  
Snow  
Snow 3.30 in 0.60 in 10.60 in (1978)
Month to date snowfall 12.5 13.5  
Since 1 July snowfall 34.2 36.8  
Snow Depth 4.00 in    
Sea Level Pressure  
Sea Level Pressure 29.65 in    
Wind  
Wind Speed 10 mph (North)    
Max Wind Speed 17 mph    
Max Gust Speed 22 mph    
Visibility 4 miles    
Events Snow    
T = Trace of Precipitation, MM = Missing Value Source: NWS Daily Summary

Daily Weather History Graph

Daily Weather History Graph

Search for Another Location

Airport or City:

Trip Planner

Search our weather history database for the weather conditions in past years. The results will help you decide how hot, cold, wet, or windy it might be!

Date:

Astronomy

Jan. 20, 2014 Rise Set
Actual Time 7:22 AM EST 4:45 PM EST
Civil Twilight 6:50 AM EST 5:17 PM EST
Nautical Twilight 6:14 AM EST 5:53 PM EST
Astronomical Twilight 5:40 AM EST 6:27 PM EST
Moon 9:30 PM EST (1/20) 9:09 AM EST (1/20)
Length of Visible Light 10h 26m
Length of Day
9h 22m
Waning Gibbous, 83% of the Moon is Illuminated
Jan 20
Waning Gibbous
Jan 24
Last Quarter
Jan 30
New
Feb 6
First Quarter
Feb 14
Full

Hourly Weather History & Observations

Time (EST) Temp. Windchill Dew Point Humidity Pressure Visibility Wind Dir Wind Speed Gust Speed Precip Events Conditions
12:54 AM 30.9 °F 22.8 °F 21.9 °F 69% 29.44 in 6.0 mi WSW 9.2 mph - 0.00 in Snow Light Snow
1:54 AM 28.9 °F 20.4 °F 23.0 °F 78% 29.44 in 7.0 mi South 9.2 mph - 0.00 in Snow Light Snow
2:54 AM 28.9 °F 21.9 °F 23.0 °F 78% 29.46 in 4.0 mi SSW 6.9 mph - 0.00 in Snow Light Snow
3:12 AM 28.9 °F 19.8 °F 23.0 °F 78% 29.45 in 5.0 mi North 10.4 mph - 0.00 in Snow Light Snow
3:24 AM 26.1 °F 16.2 °F 21.9 °F 84% 29.45 in 1.8 mi North 10.4 mph - 0.01 in Snow Light Snow
3:54 AM 24.1 °F 14.4 °F 19.9 °F 84% 29.47 in 2.0 mi NNE 9.2 mph - 0.03 in Snow Light Snow
4:54 AM 21.0 °F 10.6 °F 16.0 °F 81% 29.50 in 2.5 mi North 9.2 mph - 0.01 in Snow Light Snow
5:10 AM 21.0 °F 12.4 °F 16.0 °F 81% 29.49 in 3.0 mi North 6.9 mph - 0.00 in Snow Light Snow
5:26 AM 21.0 °F 9.3 °F 16.0 °F 81% 29.50 in 2.5 mi North 11.5 mph - 0.00 in Snow Light Snow
5:49 AM 19.4 °F 5.5 °F 14.0 °F 80% 29.51 in 1.8 mi North 15.0 mph - 0.00 in Snow Light Snow
5:54 AM 19.0 °F 5.6 °F 14.0 °F 81% 29.53 in 1.5 mi North 13.8 mph - 0.00 in Snow Light Snow
6:07 AM 18.0 °F 3.6 °F 12.9 °F 81% 29.52 in 1.2 mi North 15.0 mph 21.9 mph 0.00 in Snow Light Snow
6:17 AM 18.0 °F 4.8 °F 12.9 °F 81% 29.52 in 1.5 mi North 12.7 mph - 0.00 in Snow Light Snow
6:54 AM 18.0 °F 7.7 °F 12.9 °F 81% 29.56 in 2.0 mi North 8.1 mph - 0.01 in Snow Light Snow
7:12 AM 18.0 °F 6.1 °F 12.9 °F 81% 29.54 in 1.8 mi North 10.4 mph - 0.01 in Snow Light Snow
7:19 AM 17.1 °F 5.0 °F 12.9 °F 84% 29.55 in 1.2 mi North 10.4 mph - 0.01 in Snow Light Snow
7:54 AM 17.1 °F 5.8 °F 12.0 °F 81% 29.58 in 0.8 mi North 9.2 mph - 0.02 in Snow Light Snow
8:17 AM 17.1 °F 5.0 °F 12.0 °F 81% 29.56 in 0.5 mi North 10.4 mph - 0.00 in Snow Snow
8:54 AM 16.0 °F 3.6 °F 10.9 °F 81% 29.60 in 0.8 mi North 10.4 mph - 0.01 in Snow Light Snow
9:02 AM 15.1 °F -0.1 °F 10.0 °F 80% 29.59 in 1.0 mi North 15.0 mph - 0.01 in Snow Light Snow
9:29 AM 15.1 °F 2.5 °F 10.0 °F 80% 29.59 in 1.5 mi North 10.4 mph - 0.01 in Snow Light Snow
9:49 AM 15.8 °F 1.4 °F 10.4 °F 79% 29.61 in 1.2 mi North 13.8 mph - 0.01 in Snow Light Snow
9:54 AM 15.1 °F 1.8 °F 9.0 °F 77% 29.62 in 1.5 mi North 11.5 mph - 0.01 in Snow Light Snow
10:00 AM 15.1 °F 2.5 °F 9.0 °F 77% 29.61 in 2.0 mi North 10.4 mph - 0.00 in Snow Light Snow
10:15 AM 15.1 °F -0.6 °F 7.0 °F 70% 29.61 in 4.0 mi North 16.1 mph - 0.00 in Snow Light Snow
10:54 AM 15.1 °F 1.8 °F 7.0 °F 70% 29.63 in 4.0 mi NNE 11.5 mph - 0.00 in Snow Light Snow
11:23 AM 15.1 °F 2.5 °F 8.1 °F 74% 29.60 in 2.5 mi NNE 10.4 mph - 0.00 in Snow Light Snow
11:32 AM 15.1 °F 0.5 °F 7.0 °F 70% 29.60 in 3.0 mi North 13.8 mph 18.4 mph 0.00 in Snow Light Snow
11:54 AM 15.1 °F -0.1 °F 7.0 °F 70% 29.62 in 3.0 mi NNE 15.0 mph 19.6 mph 0.00 in Snow Light Snow
12:02 PM 14.0 °F 0.5 °F 6.1 °F 71% 29.60 in 2.0 mi North 11.5 mph - 0.00 in Snow Light Snow
12:11 PM 14.0 °F -0.8 °F 6.1 °F 71% 29.59 in 7.0 mi North 13.8 mph - 0.00 in Snow Light Snow
12:54 PM 14.0 °F 0.5 °F 5.0 °F 67% 29.62 in 6.0 mi NNE 11.5 mph - 0.00 in Snow Light Snow
1:31 PM 12.9 °F -2.2 °F 5.0 °F 71% 29.62 in 3.0 mi NNE 13.8 mph - 0.01 in Snow Light Snow
1:54 PM 12.0 °F -1.3 °F 3.9 °F 70% 29.65 in 2.0 mi NNW 10.4 mph - 0.01 in Snow Light Snow
2:20 PM 10.9 °F -4.1 °F 3.9 °F 73% 29.65 in 1.5 mi North 12.7 mph - 0.00 in Snow Light Snow
2:29 PM 10.9 °F -4.1 °F 3.9 °F 73% 29.65 in 1.0 mi North 12.7 mph - 0.00 in Snow Light Snow
2:49 PM 10.4 °F -5.4 °F 3.2 °F 73% 29.67 in 1.5 mi North 13.8 mph - 0.00 in Snow Light Snow
2:54 PM 10.0 °F -5.2 °F 3.0 °F 73% 29.69 in 1.5 mi North 12.7 mph - 0.00 in Snow Light Snow
3:30 PM 10.0 °F -5.2 °F 1.9 °F 70% 29.70 in 3.0 mi NNE 12.7 mph - 0.00 in Snow Light Snow
3:54 PM 9.0 °F -7.3 °F 1.0 °F 70% 29.75 in 10.0 mi North 13.8 mph - 0.00 in   Scattered Clouds
4:01 PM 9.0 °F -5.9 °F -0.0 °F 67% 29.73 in 10.0 mi NNE 11.5 mph - N/A   Mostly Cloudy
4:45 PM 8.1 °F -5.3 °F -2.0 °F 64% 29.77 in 10.0 mi North 9.2 mph - 0.00 in   Mostly Cloudy
4:54 PM 8.1 °F -3.2 °F -2.0 °F 64% 29.80 in 10.0 mi North 6.9 mph - 0.00 in   Mostly Cloudy
5:54 PM 7.0 °F -7.5 °F -5.1 °F 58% 29.85 in 10.0 mi NE 10.4 mph - N/A   Scattered Clouds
6:54 PM 6.1 °F -7.8 °F -5.1 °F 60% 29.90 in 10.0 mi ENE 9.2 mph - N/A   Mostly Cloudy
7:54 PM 3.9 °F -8.2 °F -6.0 °F 64% 29.93 in 10.0 mi North 6.9 mph - N/A   Partly Cloudy
8:54 PM 3.9 °F -13.7 °F -7.1 °F 60% 29.95 in 10.0 mi NW 13.8 mph - N/A   Scattered Clouds
9:54 PM 3.0 °F -10.5 °F -8.0 °F 60% 29.98 in 10.0 mi North 8.1 mph - N/A   Overcast
10:27 PM 1.9 °F -9.2 °F -9.0 °F 60% 29.96 in 10.0 mi NNW 5.8 mph - N/A   Overcast
10:54 PM 1.9 °F -10.6 °F -9.0 °F 60% 30.01 in 10.0 mi NNE 6.9 mph - N/A   Overcast
11:54 PM 1.9 °F -12.9 °F -7.1 °F 66% 30.04 in 3.0 mi North 9.2 mph - 0.00 in Snow Light Snow